[[{"header":{"parameterUnit":"m.s-1","parameterCategory":1,"la1":30.2991,"la2":30.254,"lo1":-89.0895,"lo2":-89.0444,"dy":0.0017,"dx":0.0017,"nx":28,"ny":28,"refTime":"2026-02-25T09:00:00:Z","depth":0,"parameterNumber":2,"parameterNumberName":"U-component_of_WINDS"},"data":[0,0,0,0,0,0,0,0,0,0,0,0,0,0,0,0,0,0,0,0,0,0,0,0,0,0,0,0,0,0,0,0,0,0,0,0,0,0,0,0,0,0,0,0,0,0,0,0,0,0,0,0,0,0,0,0,0,0,1.3986,1.3987,0,1.4075,1.4076,1.4077,1.4102,1.4101,1.4101,1.41,1.4196,1.4199,1.4202,0,0,0,0,0,0,0,0,0,0,0,0,0,1.3839,1.3841,1.3985,1.3987,1.3988,1.4075,1.4076,1.4078,1.4102,1.4101,1.4101,1.41,1.4195,1.4199,1.4202,0,0,0,0,0,0,0,0,0,0,0,0,0,1.3913,1.3842,1.3985,1.401,1.4013,1.4075,1.4076,1.4078,1.4102,1.4101,1.4101,1.41,1.4194,1.4198,1.4203,1.4247,0,0,1.4217,1.4219,0,0,0,0,0,0,0,0,1.3909,1.3918,1.4006,1.4009,1.4012,1.4076,1.406,1.4135,1.4102,1.4069,1.41,1.4099,1.4157,1.4165,1.4184,1.4252,1.4256,1.4217,1.422,1.4222,1.4223,0,0,0,0,0,0,0,1.3903,1.3915,1.4021,1.4007,1.4011,1.4018,1.4028,1.4074,1.4116,1.4071,1.4073,1.4084,1.4159,1.4179,1.4186,1.4257,1.4217,1.4221,1.4224,1.4226,1.4367,1.4368,0,0,0,0,0,0,1.3893,1.391,1.4018,1.4024,1.3957,1.4021,1.4032,1.4057,1.4116,1.4124,1.4084,1.4084,1.4172,1.4181,1.4189,1.4246,1.4222,1.4226,1.4229,1.4366,1.4367,1.4368,0,0,0,0,0,0,1.389,1.3903,1.4015,1.3968,1.3982,1.4025,1.4052,1.4059,1.4079,1.4125,1.4134,1.4097,1.4171,1.4183,1.4232,1.425,1.4228,1.4232,1.4365,1.4366,1.4368,1.4359,0,0,0,0,0,0,1.3886,1.3902,1.3918,1.3968,1.3985,1.4055,1.4053,1.4061,1.4086,1.4088,1.4139,1.4147,1.4172,1.4225,1.4237,1.4255,1.4236,1.4363,1.4365,1.4367,1.4358,1.436,1.4361,0,0,0,0,0,1.3881,1.3913,1.3919,1.3932,1.4006,1.4056,1.4066,1.4092,1.4088,1.4105,1.4135,1.4146,1.4245,1.423,1.4244,1.4264,1.4362,1.4365,1.4367,1.4357,1.4359,1.4361,0,0,0,0,0,0,1.3865,1.392,1.3927,1.3976,1.4011,1.406,1.4083,1.4094,1.4132,1.4132,1.4164,1.4176,1.4223,1.4248,1.4231,1.431,1.4304,1.4309,1.4292,1.4295,1.4296,1.429,1.424,0,0,0,0,0,1.3867,1.3902,1.3948,1.3987,1.4004,1.404,1.4063,1.408,1.4119,1.4134,1.4168,1.4205,1.4245,1.4271,1.431,1.4361,1.4373,1.4381,1.4383,1.4384,1.4389,1.4418,1.4423,1.4375,1.4375,1.4375,0,0,1.3873,1.3907,1.3927,1.3985,1.4014,1.4051,1.4053,1.4092,1.412,1.4141,1.4189,1.4215,1.4259,1.4309,1.4333,1.4332,1.4404,1.4387,1.4388,1.4392,1.4421,1.4425,1.4429,1.4377,1.4377,1.4376,0,0,1.3901,1.393,1.3966,1.3995,1.4038,1.4062,1.4071,1.4118,1.4136,1.4184,1.4201,1.4235,1.4303,1.4334,1.4359,1.4398,1.441,1.441,1.4421,1.4449,1.4453,1.4456,1.4471,1.4476,1.4414,1.4414,1.4414,0,1.3903,1.3958,1.3983,1.4021,1.4047,1.4065,1.4102,1.413,1.4184,1.4202,1.4199,1.4285,1.4316,1.4374,1.4383,1.4402,1.4414,1.4405,1.445,1.4453,1.4457,1.4472,1.4478,1.4414,1.4414,1.4414,1.4414,0,1.3958,1.3996,1.402,1.4071,1.4099,1.4137,1.4168,1.4194,1.4208,1.4232,1.4283,1.432,1.4368,1.4382,1.4397,1.4443,1.4441,1.4443,1.4438,1.4461,1.4476,1.4482,1.4414,1.4414,1.4414,1.4414,0,0,1.3982,1.4045,1.4054,1.4078,1.4127,1.4157,1.4196,1.4241,1.4263,1.4299,1.4333,1.439,1.4392,1.442,1.4439,1.4463,1.4493,1.4463,1.4464,1.4469,1.4547,1.4547,1.4553,1.45,1.4502,1.4502,1.4544,0,1.4018,1.4086,1.411,1.4167,1.4203,1.422,1.4254,1.4289,1.4312,1.4347,1.4373,1.4413,1.4413,1.443,1.4455,1.4484,1.451,1.4481,1.4534,1.4536,1.4524,1.456,1.456,1.4597,1.455,1.4551,1.4552,0,1.407,1.4106,1.4166,1.4211,1.4227,1.4257,1.43,1.4333,1.4372,1.4388,1.4418,1.4435,1.4477,1.4468,1.4527,1.4507,1.4529,1.4547,1.4549,1.4557,1.4546,1.457,1.461,1.4616,1.4561,1.456,1.4559,0,1.4083,1.4147,1.4191,1.4211,1.4264,1.4284,1.4308,1.4346,1.4372,1.441,1.4427,1.447,1.4494,1.4527,1.4554,1.4545,1.4611,1.4604,1.4627,1.4626,1.4642,1.4641,1.4687,1.4653,1.4653,1.4653,1.4653,0,1.4122,1.4158,1.4198,1.4226,1.4267,1.4294,1.4335,1.4359,1.4393,1.4427,1.4444,1.4476,1.451,1.4546,1.4567,1.4614,1.4624,1.4639,1.4644,1.4638,1.4637,1.4655,1.4654,1.4654,1.4654,1.4654,1.4653,0,1.4144,1.4172,1.4222,1.4267,1.4279,1.4308,1.4348,1.4376,1.4399,1.4442,1.4453,1.4491,1.4534,1.4564,1.462,1.4635,1.4685,1.469,1.4672,1.4675,1.4696,1.4694,1.4757,1.4768,1.4725,1.4725,1.4725,0,1.4168,1.4197,1.4245,1.4268,1.4291,1.4328,1.4354,1.4381,1.4407,1.4454,1.4477,1.4521,1.4558,1.4626,1.4659,1.4702,1.4709,1.4728,1.4716,1.4709,1.4711,1.471,1.4714,1.473,1.4731,1.4731,1.4731,0,1.4208,1.422,1.4256,1.4297,1.4328,1.4361,1.4396,1.4414,1.4447,1.4476,1.452,1.4548,1.4604,1.4648,1.4694,1.4719,1.4732,1.4734,1.4742,1.4737,1.4726,1.4734,1.4679,1.4733,1.4733,1.4733,1.4733,1.4733,1.4234,1.426,1.4298,1.4338,1.4366,1.4397,1.4426,1.4452,1.4489,1.4536,1.455,1.4596,1.4635,1.4697,1.4723,1.476,1.4759,1.4769,1.4773,1.4775,1.4776,1.4718,1.4768,1.4768,1.4768,1.4768,1.4768,0,1.4276,1.4301,1.4337,1.4384,1.4415,1.4422,1.446,1.4486,1.4526,1.456,1.4596,1.4646,1.4689,1.4724,1.4769,1.4792,1.4798,1.4802,1.4802,1.4808,1.4774,1.4763,1.4796,1.4796,1.4796,1.4796,1.4796,1.4796,1.4302,1.4348,1.4364,1.4424,1.4449,1.4493,1.4514,1.4544,1.4571,1.4627,1.4662,1.4684,1.4719,1.4766,1.4806,1.4815,1.4831,1.4835,1.4846,1.4813,1.481,1.4807,1.4798,1.4837,1.4837,1.4877,1.4877,1.4878]},{"header":{"parameterUnit":"m.s-1","parameterCategory":1,"la1":30.2991,"la2":30.254,"lo1":-89.0895,"lo2":-89.0444,"dy":0.0017,"dx":0.0017,"nx":28,"ny":28,"refTime":"2026-02-25T09:00:00:Z","depth":0,"parameterNumber":3,"parameterNumberName":"V-component_of_WINDS"},"data":[0,0,0,0,0,0,0,0,0,0,0,0,0,0,0,0,0,0,0,0,0,0,0,0,0,0,0,0,0,0,0,0,0,0,0,0,0,0,0,0,0,0,0,0,0,0,0,0,0,0,0,0,0,0,0,0,0,0,5.9358,5.9358,0,5.9339,5.9339,5.9339,5.9322,5.9322,5.9322,5.9322,5.9297,5.9297,5.9296,0,0,0,0,0,0,0,0,0,0,0,0,0,5.9376,5.9376,5.9358,5.9358,5.9358,5.9339,5.9339,5.9339,5.9322,5.9322,5.9322,5.9322,5.9297,5.9297,5.9296,0,0,0,0,0,0,0,0,0,0,0,0,0,5.9364,5.9376,5.9358,5.9347,5.9346,5.9339,5.9339,5.9339,5.9322,5.9322,5.9322,5.9322,5.9298,5.9297,5.9296,5.9297,0,0,5.9294,5.9294,0,0,0,0,0,0,0,0,5.9364,5.9363,5.9349,5.9348,5.9347,5.9333,5.9336,5.9324,5.9322,5.9331,5.9322,5.9322,5.9309,5.9307,5.9304,5.9296,5.9295,5.9294,5.9293,5.9293,5.9293,0,0,0,0,0,0,0,5.9365,5.9364,5.935,5.9349,5.9347,5.9342,5.934,5.9334,5.9322,5.933,5.9329,5.9328,5.9308,5.9305,5.9303,5.9294,5.9294,5.9293,5.9293,5.9292,5.9287,5.9288,0,0,0,0,0,0,5.9368,5.9365,5.9351,5.935,5.9355,5.9342,5.934,5.9338,5.9322,5.9319,5.9328,5.9327,5.9306,5.9304,5.9303,5.9304,5.9293,5.9292,5.9292,5.9287,5.9287,5.9288,0,0,0,0,0,0,5.9369,5.9367,5.9352,5.9357,5.9355,5.9342,5.934,5.9337,5.9334,5.932,5.9317,5.9327,5.9306,5.9304,5.9299,5.9303,5.9292,5.9291,5.9287,5.9287,5.9288,5.9305,0,0,0,0,0,0,5.9369,5.9368,5.9368,5.9357,5.9354,5.935,5.934,5.9337,5.9333,5.9332,5.9318,5.9316,5.9306,5.93,5.9299,5.9301,5.9291,5.9286,5.9287,5.9287,5.9304,5.9306,5.9308,0,0,0,0,0,5.937,5.9372,5.9369,5.9367,5.9355,5.935,5.9348,5.9338,5.9334,5.9334,5.9325,5.9316,5.9303,5.93,5.9298,5.9301,5.9286,5.9287,5.9287,5.9304,5.9306,5.9308,0,0,0,0,0,0,5.9382,5.9371,5.9366,5.9365,5.9359,5.9347,5.9347,5.9341,5.9334,5.9333,5.9319,5.9316,5.9314,5.9306,5.9304,5.9301,5.9293,5.9293,5.9306,5.9308,5.931,5.9312,5.929,0,0,0,0,0,5.9385,5.9383,5.9373,5.9373,5.937,5.936,5.9357,5.935,5.9342,5.9339,5.9329,5.9321,5.9315,5.9311,5.9305,5.9303,5.9301,5.9304,5.9306,5.9308,5.9308,5.9308,5.931,5.929,5.929,5.929,0,0,5.939,5.9384,5.9383,5.9375,5.937,5.9367,5.9357,5.9354,5.9352,5.9338,5.9334,5.9327,5.9317,5.9315,5.9313,5.9308,5.9313,5.9309,5.931,5.9309,5.9309,5.9311,5.9313,5.929,5.929,5.929,0,0,5.9399,5.9394,5.9394,5.939,5.9382,5.9376,5.9376,5.9366,5.9361,5.9358,5.9348,5.9344,5.9334,5.9327,5.9323,5.9332,5.9324,5.933,5.9339,5.934,5.9342,5.9343,5.9348,5.9349,5.933,5.933,5.933,0,5.9405,5.9403,5.9395,5.9394,5.9391,5.938,5.9381,5.9376,5.9366,5.9364,5.9359,5.9348,5.934,5.9337,5.934,5.9336,5.9336,5.9331,5.9342,5.9344,5.9345,5.9349,5.935,5.9331,5.9331,5.9331,5.9331,0,5.9412,5.9411,5.9412,5.9406,5.9403,5.9402,5.9393,5.9391,5.9385,5.9379,5.9376,5.9367,5.9359,5.9358,5.9351,5.9355,5.9352,5.9345,5.9337,5.9348,5.9352,5.9353,5.9333,5.9332,5.9332,5.9332,0,0,5.9426,5.9418,5.9418,5.9416,5.9409,5.9407,5.9406,5.9401,5.94,5.9394,5.9393,5.9386,5.938,5.9375,5.9367,5.9368,5.9378,5.9361,5.936,5.9365,5.9383,5.9389,5.9391,5.9372,5.9372,5.9373,5.9384,0,5.9434,5.9434,5.9428,5.9429,5.9428,5.9419,5.9419,5.9414,5.9408,5.9406,5.9399,5.9395,5.9387,5.9384,5.9384,5.9376,5.9381,5.9375,5.9371,5.9371,5.9375,5.9392,5.9398,5.9409,5.9385,5.9385,5.9386,0,5.9443,5.9441,5.9443,5.9437,5.9437,5.9437,5.9433,5.943,5.9425,5.9421,5.9417,5.9409,5.9407,5.94,5.9398,5.9394,5.9392,5.9388,5.9388,5.9387,5.9379,5.9393,5.9412,5.9415,5.9387,5.9387,5.9387,0,5.9454,5.9451,5.9453,5.9451,5.9445,5.9445,5.9442,5.9436,5.9434,5.943,5.9429,5.9424,5.9421,5.9418,5.9409,5.9404,5.9408,5.9399,5.9405,5.9405,5.9406,5.9406,5.9426,5.9403,5.9403,5.9403,5.9403,0,5.9464,5.9466,5.9459,5.9459,5.9462,5.9454,5.9456,5.9452,5.9447,5.9447,5.9438,5.9437,5.9426,5.9424,5.9416,5.9417,5.9415,5.9412,5.941,5.9413,5.9414,5.9411,5.9411,5.9404,5.9404,5.9404,5.9403,0,5.9476,5.9472,5.9473,5.9468,5.9467,5.9469,5.9464,5.9464,5.9459,5.9459,5.9458,5.945,5.9448,5.9439,5.9433,5.9428,5.9431,5.9427,5.9434,5.9433,5.9439,5.9439,5.9459,5.9462,5.9437,5.9437,5.9437,0,5.9483,5.9485,5.9481,5.9481,5.948,5.948,5.9479,5.9472,5.9471,5.9466,5.9467,5.9465,5.9463,5.9459,5.9452,5.9448,5.9444,5.9452,5.9443,5.9447,5.9446,5.9446,5.9447,5.9453,5.9454,5.9454,5.9454,0,5.9495,5.9494,5.9494,5.9494,5.9494,5.9493,5.9491,5.9491,5.9484,5.9483,5.9482,5.9481,5.9477,5.9475,5.9471,5.9466,5.9459,5.9457,5.9458,5.9462,5.9466,5.9465,5.944,5.9456,5.9456,5.9456,5.9456,5.9456,5.9506,5.9508,5.9507,5.9507,5.9506,5.9506,5.9507,5.9503,5.9503,5.9501,5.9497,5.9497,5.9492,5.9486,5.9483,5.9482,5.9478,5.9479,5.948,5.9481,5.9483,5.9466,5.9481,5.9481,5.9481,5.9481,5.9481,0,5.9519,5.9518,5.9519,5.9519,5.952,5.9516,5.9514,5.9515,5.9516,5.9514,5.9513,5.9512,5.9511,5.9505,5.9503,5.9503,5.95,5.9503,5.9503,5.9503,5.9486,5.9486,5.9506,5.9506,5.9506,5.9506,5.9506,5.9506,5.9526,5.953,5.9529,5.9532,5.9531,5.9533,5.9533,5.9533,5.9531,5.9532,5.9532,5.9529,5.9525,5.9523,5.9522,5.952,5.952,5.9524,5.9521,5.9506,5.9503,5.9501,5.9501,5.9524,5.9524,5.9538,5.9538,5.9538]}]]